Regional Weather Roundup
Issued by NWS Upton, NY

Home | Current Version | Previous Version | Text Only | Print | Product List | Glossary On
Versions: 1 2 3 4 5 6 7 8 9 10 11 12 13 14 15 16 17 18 19 20 21 22 23 24 25 26 27 28 29 30 31 32 33 34 35 36 37 38 39 40 41 42 43 44 45 46 47 48 49 50
000
ASUS41 KOKX 110005
RWROKX

REGIONAL WEATHER ROUNDUP
NATIONAL WEATHER SERVICE NEW YORK NY
800 PM EDT THU JUL 10 2014

NOTE: "FAIR" INDICATES FEW OR NO CLOUDS BELOW 12,000 FEET WITH NO
SIGNIFICANT WEATHER AND/OR OBSTRUCTIONS TO VISIBILITY.

NYZ071-072-176-178-NJZ106-104-110100-
NEW YORK CITY METRO AREA


CITY           SKY/WX    TMP DP  RH WIND       PRES   REMARKS
CENTRAL PARK   MOCLDY    75  60  59 CALM      30.14R
LAGUARDIA APRT CLOUDY    77  60  55 S5        30.10R
KENNEDY INTL   MOCLDY    75  61  61 E6        30.11R
NEWARK/LIBERTY MOCLDY    74  60  61 S3        30.12R
BRNX BOT. GARD   N/A     75  61  60 SE3       30.13R
TETERBORO      CLOUDY    81  60  48 SW12      30.10R
$$

NYZ177-179-078>081-110100-
LONG ISLAND NEW YORK

CITY           SKY/WX    TMP DP  RH WIND       PRES   REMARKS
FARMINGDALE    CLOUDY    73  61  65 SE3       30.11R
ISLIP          CLOUDY    75  61  61 SE6       30.09R
SHIRLEY        CLOUDY    72  61  68 S6        30.11S
WESTHAMPTON    CLOUDY    70  61  73 CALM      30.12S
MONTAUK POINT    N/A     72  62  71 VRB3      30.12S
$$

NYZ052-065-067-110100-
HUDSON VALLEY

CITY           SKY/WX    TMP DP  RH WIND       PRES   REMARKS
WHITE PLAINS   MOCLDY    74  63  68 CALM      30.11R
NEWBURGH       PTCLDY    79  61  53 E6        30.13R
MONTGOMERY     CLOUDY    76  62  62 CALM      30.12R
POUGHKEEPSIE   PTCLDY    77  61  57 NE3       30.10R
ALBANY         MOCLDY    74  49  41 NW9       30.13R
$$

NJZ001-105-106-008-010-013-015-019>022-104-110100-
NEW JERSEY

CITY           SKY/WX    TMP DP  RH WIND       PRES   REMARKS
NEWARK/LIBERTY MOCLDY    74  60  61 S3        30.12R
TETERBORO      CLOUDY    81  60  48 SW12      30.10R
CALDWELL       HVY RAIN  69  67  93 NW3       30.14R FOG
MORRISTOWN     LGT RAIN  68  66  94 N7        30.15R FOG
SOMERVILLE     CLOUDY    70  64  81 N9        30.10F
LINDEN         MOCLDY    77  60  56 E3        30.13R
SUSSEX         CLOUDY    76  67  73 VRB5      30.13R
ANDOVER          N/A     69  65  86 VRB3      30.14R
TRENTON        MOCLDY    77  62  59 E8        30.08R
MILLVILLE      CLOUDY    72  70  93 E8        30.08S
ATLANTIC CITY  CLOUDY    70  69  97 E5        30.08S FOG
WRIGHTSTOWN    CLOUDY    73  64  71 VRB5      30.07R
TOMS RIVER     CLOUDY    72  64  78 CALM      30.09S
BELMAR         CLOUDY    73  61  64 E5        30.10S
$$

PAZ047>061-062-071-110100-
EASTERN PENNSYLVANIA

CITY           SKY/WX    TMP DP  RH WIND       PRES   REMARKS
PHILADELPHIA   MOCLDY    79  66  64 SE9       30.07R
ALLENTOWN      PTCLDY    72  64  76 E7        30.11R
SCRANTON       MOCLDY    74  60  61 CALM      30.13R
$$

CTZ002-004>006-009-010-012-RIZ004-006-007-MAZ004-011-015-110100-
SOUTHERN NEW ENGLAND
 IN CT

CITY           SKY/WX    TMP DP  RH WIND       PRES   REMARKS
BRADLEY INTL   MOCLDY    78  57  48 N5        30.10R
HARTFORD       PTCLDY    79  52  38 N7        30.09S
DANBURY        PTCLDY    76  56  49 N5        30.13R
WTRBRY/OXFORD  PTCLDY    75  59  57 NW5       30.14F
BRIDGEPORT     CLOUDY    77  59  53 CALM      30.10S
MERIDEN        PTCLDY    77  62  59 S7        30.09F
NEW HAVEN      MOCLDY    77  63  61 CALM      30.10F
CHESTER        FAIR      73  63  68 CALM      30.12S
GROTON         MOCLDY    70  64  81 CALM      30.10R
WILLIMANTIC    PTCLDY    78  62  57 N5        30.10S

 IN RI

CITY           SKY/WX    TMP DP  RH WIND       PRES   REMARKS
PROVIDENCE     MOCLDY    77  64  64 S7        30.11R
BLOCK ISLAND   MOCLDY    70  61  73 S6        30.11F
WESTERLY       MOCLDY    73  62  68 S3        30.10S

 IN MA

CITY           SKY/WX    TMP DP  RH WIND       PRES   REMARKS
BOSTON         PTCLDY    79  53  40 W8        30.11R
WORCESTER      CLEAR     73  57  57 NW3       30.15R
WESTFIELD      LGT RAIN  76  55  48 NW6       30.11R
PROVINCETOWN   NOT AVBL
NANTUCKET      CLOUDY    66  64  93 S3        30.12R FOG
$$

ANZ330-335-338-340-345-350-353-355-110100-
COASTAL MARINE OBSERVATIONS


STATION/POSITION TIME  SKY/WX   TEMP    WIND        PRES    VSBY  WAVE
                                AIR SEA DIR/SP/G                  HT/PER
                 (UTC)          (F)     (DEG/KT/KT) (MB)    (MI)  (FT/S)
NY HARB ENTRANCE NOT AVBL
4S FIRE IS       2300               68                N/A           3/ 7
23SW MTP         0000            68 67              1019.0          4/ 7
HUDSON CANYON    0000            70 70   50/  4/  4 1019.0          3/ 7
EXECUTION ROCKS  0000            72 69  250/  4/  6   N/A
WESTERN LI SOUND 0000            73      50/  4/  6   N/A           0
CENTRAL LI SOUND 2300            74 72  160/  2/  4   N/A           0
EASTERN LI SOUND 2300            70 66  180/  4/  4   N/A
ROBBINS REEF     0000            73     170/  8/  9   N/A
$$


>>>>>>>>>>>>>>>>>>>>>>>>>>>> KEY <<<<<<<<<<<<<<<<<<<<<<<<<<<
>                                                          <
>     SKY/WX - SKY CONDITION/PRESENT WEATHER               <
>     TMP    - TEMPERATURE IN FAHRENHEIT                   <
>     DP     - DEWPOINT IN FAHRENHEIT                      <
>     RH     - RELATIVE HUMIDITY IN PERCENT                <
>     WIND   - DIRECTION AND SPEED IN MPH                  <
>     PRES   - MEAN SEA LEVEL PRESSURE IN INCHES OF HG     <
>     WCI    - WIND CHILL INDEX                            <
>     VSB    - VISIBILITY IN MILES                         <
>     HX     - HEAT INDEX                                  <
>     TC     - TEMPERATURE IN CELSIUS                      <
>     VRB    - VARIABLE WIND DIRECTION                     <
>                                                          <
>>>>>>>>>>>>>>>>>>>>>>>>>>>> KEY <<<<<<<<<<<<<<<<<<<<<<<<<<<





USA.gov is the U.S. government's official web portal to all federal, state and local government web resources and services.